| time (UTC) | temp C | wind direction | speed KPH | gust KPH | rain 1hr cm | rain 24hr cm | rain mn cm | humidity % | barometer mb |
| 20260505071927 | 12 | 223 | 6.4 | 17.7 | 0.00 | 0.00 | 0.00 | 88 | 1012.4 |
| 20260505070926 | 12 | 194 | 8.0 | 16.1 | 0.00 | 0.00 | 0.00 | 88 | 1012.1 |
| 20260505061926 | 12 | 189 | 6.4 | 14.5 | 0.00 | 0.00 | 0.00 | 85 | 1011.6 |
| 20260505052428 | 13 | 175 | 6.4 | 17.7 | 0.00 | 0.00 | 0.00 | 82 | 1011.3 |
| 20260505051427 | 14 | 208 | 6.4 | 16.1 | 0.00 | 0.00 | 0.00 | 81 | 1011.2 |
| 20260505050926 | 14 | 180 | 4.8 | 17.7 | 0.00 | 0.00 | 0.00 | 81 | 1011.2 |
| 20260505040927 | 16 | 225 | 6.4 | 16.1 | 0.00 | 0.00 | 0.00 | 75 | 1010.4 |
| 20260505034926 | 17 | 217 | 4.8 | 11.3 | 0.00 | 0.00 | 0.00 | 73 | 1010.3 |
| 20260505031426 | 18 | 237 | 12.9 | 20.9 | 0.00 | 0.00 | 0.00 | 68 | 1009.8 |
| 20260505030427 | 19 | 214 | 6.4 | 20.9 | 0.00 | 0.00 | 0.00 | 66 | 1009.8 |
| 20260505024427 | 21 | 231 | 4.8 | 16.1 | 0.00 | 0.00 | 0.00 | 60 | 1009.4 |
| 20260505021426 | 23 | 195 | 3.2 | 8.0 | 0.00 | 0.00 | 0.00 | 53 | 1009.4 |
| 20260505014426 | 24 | 223 | 3.2 | 14.5 | 0.00 | 0.00 | 0.00 | 51 | 1009.4 |
| 20260505013927 | 24 | 191 | 4.8 | 9.7 | 0.00 | 0.00 | 0.00 | 51 | 1009.4 |
| 20260505012426 | 24 | 183 | 6.4 | 11.3 | 0.00 | 0.00 | 0.00 | 50 | 1009.5 |
| 20260505011426 | 25 | 188 | 3.2 | 8.0 | 0.00 | 0.00 | 0.00 | 50 | 1009.6 |
| 20260505010426 | 25 | 215 | 1.6 | 12.9 | 0.00 | 0.00 | 0.00 | 50 | 1009.6 |
| 20260505004926 | 25 | 193 | 4.8 | 9.7 | 0.00 | 0.00 | 0.00 | 48 | 1009.6 |
| 20260505003926 | 25 | 228 | 4.8 | 9.7 | 0.00 | 0.00 | 0.00 | 47 | 1009.7 |
| 20260505003426 | 25 | 217 | 1.6 | 8.0 | 0.00 | 0.00 | 0.00 | 46 | 1009.7 |
| 20260505000428 | 25 | 0 | 0.0 | 16.1 | 0.00 | 0.00 | 0.00 | 46 | 1009.7 |
| 20260504235426 | 25 | 158 | 8.0 | 11.3 | 0.00 | 0.00 | 0.00 | 45 | 1009.7 |
| 20260504233427 | 25 | 200 | 3.2 | 9.7 | 0.00 | 0.00 | 0.00 | 44 | 1009.7 |
| 20260504232926 | 25 | 173 | 3.2 | 11.3 | 0.00 | 0.00 | 0.00 | 44 | 1009.7 |
| 20260504231927 | 25 | 166 | 1.6 | 9.7 | 0.00 | 0.00 | 0.00 | 43 | 1009.7 |
| 20260504230926 | 25 | 145 | 6.4 | 12.9 | 0.00 | 0.00 | 0.00 | 44 | 1009.8 |
| 20260504220926 | 25 | 123 | 4.8 | 9.7 | 0.00 | 0.00 | 0.00 | 47 | 1010.5 |
| 20260504214927 | 25 | 0 | 0.0 | 9.7 | 0.00 | 0.00 | 0.00 | 48 | 1010.7 |
| 20260504211926 | 23 | 224 | 4.8 | 12.9 | 0.00 | 0.00 | 0.00 | 53 | 1010.8 |
| 20260504205926 | 23 | 165 | 6.4 | 16.1 | 0.00 | 0.00 | 0.00 | 53 | 1010.7 |
| 20260504203426 | 23 | 192 | 3.2 | 12.9 | 0.00 | 0.00 | 0.00 | 55 | 1010.8 |
| 20260504194926 | 21 | 189 | 4.8 | 14.5 | 0.00 | 0.00 | 0.00 | 57 | 1010.8 |
| 20260504193926 | 21 | 148 | 3.2 | 11.3 | 0.00 | 0.00 | 0.00 | 58 | 1010.8 |
| 20260504191926 | 21 | 213 | 6.4 | 14.5 | 0.00 | 0.00 | 0.00 | 57 | 1010.9 |
| 20260504185426 | 21 | 244 | 3.2 | 6.4 | 0.00 | 0.00 | 0.00 | 55 | 1011.1 |
| 20260504184925 | 21 | 178 | 1.6 | 9.7 | 0.00 | 0.00 | 0.00 | 54 | 1011.1 |
| 20260504182426 | 21 | 230 | 1.6 | 6.4 | 0.00 | 0.00 | 0.00 | 54 | 1011.2 |
| 20260504181927 | 21 | 216 | 3.2 | 8.0 | 0.00 | 0.00 | 0.00 | 53 | 1011.2 |
| 20260504181426 | 20 | 177 | 3.2 | 6.4 | 0.00 | 0.00 | 0.00 | 54 | 1011.2 |
| 20260504180926 | 20 | 243 | 1.6 | 6.4 | 0.00 | 0.00 | 0.00 | 57 | 1011.2 |
| 20260504180426 | 19 | 233 | 4.8 | 9.7 | 0.00 | 0.00 | 0.00 | 58 | 1011.2 |
| 20260504173929 | -17 | 243 | 1.6 | 0.0 | 0.00 | 0.00 | 0.00 | 55 | 1011.1 |
| 20260504173927 | 20 | 243 | 1.6 | 8.0 | 0.00 | 0.00 | 0.00 | 55 | 1011.1 |
| 20260504172926 | 20 | 226 | 3.2 | 6.4 | 0.00 | 0.00 | 0.00 | 55 | 1011.1 |
| 20260504171926 | 19 | 247 | 1.6 | 6.4 | 0.00 | 0.00 | 0.00 | 57 | 1011.1 |
| 20260504170926 | 20 | 231 | 1.6 | 6.4 | 0.00 | 0.00 | 0.00 | 56 | 1011.0 |
| 20260504150925 | 17 | 0 | 0.0 | 3.2 | 0.00 | 0.00 | 0.00 | 69 | 1010.3 |
| 20260504140427 | 15 | 143 | 1.6 | 4.8 | 0.00 | 0.00 | 0.00 | 71 | 1009.9 |
| 20260504130425 | 14 | 0 | 0.0 | 3.2 | 0.00 | 0.00 | 0.00 | 67 | 1009.5 |
| 20260504110426 | 15 | 0 | 0.0 | 1.6 | 0.00 | 0.00 | 0.00 | 59 | 1009.4 |
| 20260504081425 | 18 | 0 | 0.0 | 3.2 | 0.00 | 0.00 | 0.00 | 53 | 1009.3 |
| 20260504080925 | 18 | 0 | 0.0 | 3.2 | 0.00 | 0.00 | 0.00 | 53 | 1009.3 |